2020-085K

Last updated on Thu Dec 03 2020 00:02:04 GMT+0000 (Coordinated Universal Time)

1 46938U 20085K 20337.62570098 .00006947 00000-0 31511-3 0 9997 2 46938 97.3688 112.0031 0015282 254.7846 105.1701 15.21028118 1909
UTC large
Height (km)
Speed (km/s)
/
Latitude / Longitude
Inclination (degrees)
Orbital Period (minutes)
Azimuth
Elevation
Range (km)
Doppler Factor

Next 0 passes for location: London (51.5072 / 0.1276)

Sorry there are no passes over London.